Temperature
15 15 15 15 13 11 12 13 15 16 18 20 22 22 21 21 21 21 21 22 21 19 17 16 16 16 16 16 16 16 16 15 15 15 15 15 14 14 14 14 14 14 14 14 14 14 13 13 13
15 15 15 14 12 12 12 13 15 17 19 21 22 22 20 21 21 21 21 20 20 19 17 16 16 16 16 16 16 16 15 15 15 14 14 14 14 14 13 13 13 13 13 13 13 13 13 13 12
14 14 14 12 11 12 13 15 16 18 20 20 21 21 21 21 22 22 22 21 19 18 17 16 15 15 16 16 15 15 15 15 14 14 14 14 14 13 13 13 13 13 13 13 13 13 13 13 12
14 14 13 11 12 13 14 16 17 18 20 21 21 20 21 22 22 22 22 20 19 18 17 16 15 15 15 15 15 15 15 14 14 14 14 14 13 13 13 13 13 13 13 13 13 13 13 13 12
13 13 11 11 12 14 14 16 17 17 18 20 20 19 20 21 21 22 21 20 19 18 16 15 15 15 15 15 15 15 14 14 14 14 13 13 13 13 13 13 13 12 12 13 13 13 13 12 12
12 11 11 12 13 14 14 16 17 16 17 19 20 18 20 21 21 21 21 20 19 18 16 15 15 15 15 15 14 14 14 14 13 13 13 13 13 13 12 12 12 12 12 12 12 12 12 12 12
11 10 11 12 13 14 15 17 16 16 17 19 20 18 18 19 20 21 20 19 18 17 16 15 14 14 14 14 14 14 14 13 13 13 13 13 13 13 12 12 12 12 12 12 12 12 12 12 11
11 10 11 12 12 14 16 17 18 18 18 20 20 18 17 19 19 19 18 17 17 16 15 15 14 14 14 14 14 14 13 13 13 13 13 13 12 12 12 12 12 12 12 12 12 12 11 11 11
11 11 11 12 13 14 16 16 18 19 19 20 20 21 22 19 18 17 16 15 15 15 14 14 14 14 14 14 13 13 13 13 12 12 12 12 12 12 12 12 12 12 12 12 12 12 11 11 10
10 11 12 13 13 14 15 16 17 17 17 18 19 20 20 18 17 16 16 15 14 14 14 14 14 14 14 13 13 13 13 12 12 12 12 12 12 12 12 12 12 12 12 12 12 11 11 11 10
10 10 12 13 14 14 15 15 16 16 16 17 18 19 18 17 16 16 16 16 16 15 14 14 14 14 13 13 13 13 13 12 12 12 12 12 12 12 12 12 12 12 12 12 11 11 11 10 10
9 11 12 12 13 14 14 15 15 16 16 18 18 19 18 17 16 16 16 16 15 14 14 14 14 14 13 13 13 13 13 13 12 12 12 12 12 12 12 12 12 12 12 11 11 11 10 10 10
9 10 11 12 12 13 13 14 14 15 16 17 17 17 17 17 17 17 17 16 15 15 14 14 14 13 13 13 13 13 13 13 13 12 12 12 12 12 12 12 12 12 11 11 11 10 10 10 10
9 9 10 11 11 12 12 13 13 14 16 16 16 16 17 17 17 16 15 15 15 15 15 14 14 14 13 13 13 13 13 13 13 13 12 12 12 12 12 12 12 11 11 11 10 10 10 10 10
8 8 9 10 11 11 12 11 12 14 15 15 16 16 16 17 17 16 16 16 16 16 15 15 14 14 13 13 13 13 13 13 13 13 12 12 12 12 12 12 12 11 11 11 10 10 10 10 10
7 7 7 9 10 11 11 10 13 14 14 15 15 15 15 16 16 17 17 17 16 16 15 15 14 14 14 13 13 13 13 13 13 13 12 12 12 12 12 12 12 11 11 10 10 10 10 9 9
6 6 7 9 10 11 10 10 12 14 14 14 15 15 15 16 16 16 16 17 16 16 15 15 14 14 14 13 13 13 13 13 13 13 13 12 12 12 12 12 12 11 11 10 10 10 10 10 9
6 6 7 8 10 10 10 10 12 13 14 14 14 15 15 15 16 17 17 16 16 16 16 15 15 14 14 13 13 13 13 13 13 13 13 13 12 12 12 12 11 11 11 10 10 10 9 9 9
6 6 7 8 9 9 9 10 11 12 12 13 13 14 15 15 16 17 17 16 16 16 15 15 15 14 13 13 13 13 13 13 13 13 13 12 12 12 12 12 11 11 11 10 10 10 9 9 9
6 6 6 7 9 9 9 9 10 11 12 12 13 14 14 15 16 16 16 16 16 16 16 15 15 14 14 14 14 14 14 13 13 13 12 12 12 12 12 12 12 11 11 10 10 10 9 9 9
5 6 6 7 8 8 8 8 9 11 12 13 13 14 14 15 16 16 16 16 16 16 16 16 15 15 15 15 14 13 13 12 12 12 12 12 12 12 12 12 12 11 11 11 10 10 10 10 9
5 7 7 7 6 6 7 7 8 10 11 12 12 13 14 15 16 16 17 17 17 17 17 17 16 16 15 15 14 13 13 13 14 14 13 13 12 12 12 12 12 11 11 11 11 10 10 10 10
5 7 6 6 6 5 6 6 7 9 10 11 12 13 14 15 15 16 17 17 17 17 17 17 17 16 16 15 14 14 14 14 14 14 13 13 13 12 12 12 11 11 11 11 11 10 10 10 10
6 6 6 6 5 5 6 6 6 8 10 11 12 13 14 15 15 16 16 17 17 17 17 17 16 16 16 15 15 15 15 14 14 14 13 13 13 12 12 12 11 11 11 11 11 10 10 10 10
5 4 4 4 4 5 6 6 7 9 10 11 12 13 14 14 15 15 16 16 17 17 17 16 16 16 16 15 15 15 15 15 15 15 14 14 13 13 13 12 12 11 11 11 11 10 10 10 10
5 4 4 4 4 5 6 6 8 9 10 11 12 13 13 14 15 15 16 16 16 17 17 16 16 16 16 15 15 15 15 15 15 15 15 15 15 15 14 13 12 12 11 11 10 10 10 10 9
4 4 5 4 4 4 5 6 7 9 9 10 11 12 12 13 14 15 16 16 16 16 17 16 16 16 16 16 16 15 15 15 15 15 15 15 15 14 14 13 12 12 11 11 10 10 10 10 9
5 5 4 4 4 4 5 6 7 8 8 9 9 10 11 12 13 14 15 16 16 16 16 16 16 16 16 16 15 15 15 15 15 14 14 14 14 14 13 13 12 12 11 11 10 10 10 10 9
3 3 4 3 4 4 5 6 8 7 8 8 9 9 11 11 13 14 15 16 16 16 16 16 16 16 16 16 15 15 15 15 14 14 14 14 14 13 13 13 12 11 11 11 10 10 10 10 9
3 3 3 3 3 3 4 6 8 7 8 8 8 9 10 11 12 13 14 15 16 16 16 16 16 16 16 16 15 15 15 14 14 14 14 13 13 13 13 12 12 11 11 11 10 10 10 10 9
Wind_Speed
6 1 3 4 3 1 7 8 6 6 6 7 7 5 7 7 6 5 4 14 16 21 23 28 29 28 27 26 26 25 24 24 23 23 22 22 21 20 20 20 19 19 19 19 18 18 17 17 17
2 2 3 3 4 7 9 8 12 16 11 4 3 4 4 5 2 7 9 12 20 22 22 25 28 28 27 27 26 25 25 24 24 23 22 22 21 20 20 20 19 19 19 19 18 18 17 17 17
2 3 3 4 7 11 9 7 14 15 13 8 5 3 6 6 6 9 10 18 20 19 21 25 28 28 27 27 26 26 25 24 23 23 22 22 21 21 20 20 20 19 19 19 18 17 16 16 16
0 2 2 6 16 14 11 8 4 7 7 6 6 3 2 4 9 8 16 20 21 18 19 25 28 28 27 27 26 26 25 24 23 23 22 21 21 21 20 20 19 19 19 18 18 17 16 16 15
1 3 6 12 19 11 10 12 10 9 7 5 3 4 3 2 6 16 21 21 21 18 18 24 28 28 27 26 26 26 25 24 24 23 22 22 22 21 21 20 19 19 18 18 17 16 15 15 15
2 4 10 19 20 13 12 12 10 13 12 9 4 4 3 2 13 18 20 20 19 19 18 22 27 27 27 26 26 26 25 24 24 24 23 22 22 21 21 20 19 18 18 17 17 16 15 15 15
5 6 13 14 15 15 14 10 13 14 15 13 6 5 2 5 11 16 17 17 17 17 16 16 21 24 26 26 26 25 25 25 24 24 23 23 22 21 20 19 19 18 17 17 16 15 15 14 14
6 5 11 13 16 16 9 9 10 12 13 8 6 9 8 9 11 14 15 15 16 15 14 13 14 19 20 22 25 25 25 24 24 23 23 22 22 21 20 19 18 18 17 16 15 15 14 13 12
5 11 19 17 14 9 6 9 11 7 8 7 5 8 9 15 17 18 16 15 16 16 13 13 13 13 16 19 22 23 24 24 23 22 23 21 18 18 17 17 18 18 17 15 15 14 13 11 10
9 18 26 12 7 6 7 10 9 6 7 5 4 1 8 18 21 22 22 23 22 21 18 15 14 14 14 16 18 18 18 19 19 19 19 17 16 16 16 18 17 17 16 15 13 12 11 8 7
8 17 14 12 11 10 11 12 9 8 11 8 6 5 13 18 21 22 23 24 24 23 20 18 16 15 13 10 12 11 13 15 17 18 18 17 15 14 14 13 14 14 14 11 11 9 7 6 5
11 16 13 11 11 12 14 12 12 14 14 9 7 9 17 20 21 22 23 21 20 21 21 19 17 16 13 11 10 10 9 10 11 16 18 16 10 9 10 9 10 11 10 9 8 6 5 5 5
17 18 17 15 13 14 15 17 16 20 15 9 7 9 16 19 20 19 19 20 20 21 21 20 18 17 14 12 11 10 9 10 13 15 17 17 10 7 8 8 10 10 10 9 7 6 5 4 4
9 12 15 15 16 15 18 19 16 19 10 8 9 12 15 18 18 13 14 17 21 22 22 21 20 18 16 13 11 10 11 12 14 14 16 18 15 11 8 7 8 9 11 10 9 7 5 4 4
10 13 15 14 14 12 12 20 24 19 11 11 11 12 14 15 15 17 19 21 22 22 22 22 21 19 18 15 13 11 11 13 11 13 17 18 17 15 11 7 6 9 12 11 8 6 5 4 4
7 10 13 11 13 12 12 23 19 11 12 15 13 12 13 14 15 17 19 19 20 20 22 22 21 21 20 16 14 11 12 12 11 14 16 18 19 18 13 8 7 11 11 9 5 4 4 4 4
8 12 15 13 11 10 14 18 12 10 12 15 14 13 13 14 14 15 17 18 20 21 22 23 21 22 21 18 14 12 11 11 12 14 14 17 19 19 14 9 9 12 8 5 5 4 4 4 4
9 10 12 13 7 12 17 19 14 10 12 14 14 13 13 15 17 15 17 18 19 20 21 22 21 21 20 16 12 11 11 11 11 12 14 18 18 19 15 10 10 12 7 6 5 5 4 4 5
14 14 16 15 10 11 17 19 17 13 12 14 14 14 15 16 16 15 17 19 19 20 21 22 21 21 19 17 16 15 15 13 12 11 15 18 18 19 14 8 9 9 9 8 8 5 5 4 4
17 18 18 15 12 12 15 19 16 15 15 14 15 15 16 15 14 15 15 18 21 23 23 24 24 24 23 18 16 13 12 10 10 9 12 17 18 18 15 11 10 9 8 9 8 6 5 3 4
16 17 16 15 12 10 10 14 16 13 15 15 15 15 15 17 17 16 16 18 20 23 25 24 25 24 24 19 13 10 8 7 8 11 13 13 17 18 15 14 11 10 10 10 9 9 8 6 4
15 12 13 14 11 7 7 9 11 11 14 17 17 16 15 16 16 15 16 17 20 23 23 25 26 25 25 21 19 20 17 15 14 14 12 12 15 16 16 15 13 12 10 10 11 9 6 8 5
10 9 11 12 10 9 8 8 9 9 13 15 16 16 15 14 15 15 15 18 19 21 22 23 24 25 24 23 23 22 18 14 9 9 12 13 12 13 15 15 13 13 11 12 11 10 8 7 6
8 6 8 7 6 10 12 9 8 8 14 13 14 15 15 14 14 14 13 13 16 18 20 21 23 24 24 25 24 24 21 16 14 14 15 13 11 12 14 15 14 13 12 12 11 12 11 9 7
5 3 2 3 6 8 8 9 10 11 12 14 14 13 13 13 12 13 12 13 15 16 19 20 23 24 24 25 25 25 24 22 21 18 18 15 12 12 16 15 15 13 12 12 11 12 11 11 10
6 6 5 4 5 4 6 9 8 9 9 8 10 10 11 11 11 12 13 14 16 18 19 21 23 23 24 25 25 24 22 19 17 17 15 17 15 15 14 15 14 14 13 13 12 11 11 11 11
3 6 5 2 3 3 6 6 7 5 6 8 9 10 11 12 12 13 13 14 15 18 20 22 23 22 23 25 24 22 21 20 18 17 15 15 12 11 13 14 14 13 14 14 13 11 11 11 11
3 2 1 3 3 5 5 5 4 3 5 7 6 8 10 10 11 12 12 14 14 16 18 20 22 23 22 23 23 19 21 20 18 16 17 16 14 13 14 15 14 13 13 14 13 10 10 12 11
1 1 2 3 3 2 3 4 2 2 4 6 7 8 9 8 9 10 11 12 13 13 16 18 19 19 20 21 21 20 19 19 17 17 18 17 15 15 15 16 15 15 14 14 13 12 12 13 11
1 1 1 2 4 3 4 6 3 5 7 7 9 10 9 8 8 8 9 9 11 13 14 17 18 18 19 20 19 19 18 18 18 17 17 17 16 16 15 15 15 15 15 14 14 14 13 13 13
Wind_Direction
284 26 87 69 71 214 235 233 229 247 238 221 214 189 186 194 185 199 130 141 141 156 164 162 160 157 154 151 148 145 141 138 136 134 132 131 130 129 126 123 120 116 112 109 106 105 104 105 103
315 118 80 89 166 222 243 224 227 239 235 262 257 204 183 210 203 133 138 152 149 157 162 161 161 158 155 151 149 147 145 141 139 137 135 134 133 132 129 126 123 119 115 112 109 108 108 107 104
291 167 146 162 201 214 228 219 225 241 250 244 247 226 183 185 168 167 162 151 149 157 161 161 160 158 155 152 150 148 147 145 142 140 138 137 135 133 130 127 125 122 118 116 114 113 112 109 104
68 118 170 211 230 221 218 230 248 283 285 236 203 212 203 194 173 168 146 148 150 156 159 162 161 159 156 154 152 150 149 148 145 143 141 140 138 135 131 129 126 124 122 120 118 116 114 110 106
106 163 215 234 239 237 235 247 268 279 276 270 207 191 212 306 143 138 145 150 153 156 158 163 162 160 158 156 154 153 152 149 147 145 144 143 139 136 132 130 130 128 126 123 122 120 117 112 108
210 187 217 232 238 239 241 247 263 266 264 266 233 194 227 147 139 146 150 152 154 156 158 163 163 161 160 159 156 155 153 151 149 148 146 144 141 139 137 136 135 132 130 128 127 124 122 117 111
196 211 229 235 243 244 240 233 241 250 258 251 206 190 205 173 159 149 148 148 151 156 158 162 163 162 161 159 158 157 154 153 151 150 148 145 144 143 142 141 140 136 133 131 129 127 126 121 113
195 222 237 233 238 245 234 237 237 232 248 247 188 181 196 194 157 139 139 144 151 157 160 160 159 160 159 159 158 157 155 154 153 150 147 146 146 146 145 143 142 140 137 134 133 131 130 125 116
193 228 234 227 228 240 224 248 261 251 245 257 227 204 198 153 143 139 142 149 157 162 164 160 158 157 156 156 158 156 156 156 152 149 147 146 145 143 143 144 146 144 142 139 137 135 131 125 115
210 230 234 231 225 239 247 249 265 280 274 275 301 328 138 148 152 155 160 165 169 171 171 166 162 159 156 159 157 156 155 153 148 148 146 143 141 141 145 148 149 148 146 144 142 141 134 120 106
226 237 245 243 248 260 267 268 268 266 265 250 237 187 155 160 163 167 171 174 175 173 172 170 166 162 161 157 155 154 150 149 148 149 148 146 142 144 147 149 151 148 145 145 143 135 131 127 121
249 252 252 253 254 260 263 267 267 256 253 255 236 187 171 173 174 176 176 176 173 172 174 171 168 165 164 157 158 154 154 155 155 156 154 150 146 147 151 150 150 148 149 147 144 145 148 146 142
247 255 259 262 262 260 264 262 263 263 261 256 235 201 186 185 184 184 180 174 172 175 175 173 171 169 165 160 162 162 161 162 161 161 161 158 155 157 157 157 158 158 159 158 156 159 158 158 148
257 267 264 260 258 259 262 265 261 259 258 244 222 211 203 195 189 181 176 176 177 178 177 174 175 173 168 167 168 166 167 167 167 167 167 164 163 163 161 161 164 168 170 170 167 166 159 154 138
264 271 271 254 247 246 254 261 250 253 254 244 228 213 212 209 195 187 184 183 181 180 178 177 177 174 172 171 170 170 172 171 172 174 171 169 168 168 166 165 169 176 175 170 163 156 147 135 128
257 254 255 245 232 234 229 251 252 243 237 244 238 221 215 216 206 197 190 187 183 179 179 179 179 177 176 175 174 172 175 175 176 176 176 174 172 172 168 168 176 179 173 165 154 147 136 136 132
227 235 245 257 232 229 224 251 257 235 231 241 239 228 219 218 217 206 196 190 185 182 180 180 180 179 178 176 175 172 175 178 178 178 178 178 177 175 173 173 176 174 168 163 164 151 144 145 142
230 232 243 247 241 236 239 250 256 247 236 238 239 234 224 220 221 210 200 194 190 185 182 182 181 179 177 175 173 172 176 181 180 182 181 179 180 178 175 175 175 172 165 167 162 152 144 147 145
256 261 262 262 266 257 253 257 258 252 247 244 240 234 230 227 222 216 206 197 192 188 185 183 182 180 177 179 181 181 185 185 184 185 183 182 181 179 177 176 174 175 175 174 161 147 148 143 133
253 256 263 273 263 258 259 263 261 252 245 242 239 235 230 229 226 218 210 201 194 191 189 186 185 182 183 186 186 184 179 180 181 179 183 184 183 181 182 176 179 178 173 170 168 151 147 156 155
253 247 251 260 281 269 271 266 252 247 244 244 242 237 229 227 223 219 209 203 197 194 191 189 188 186 187 183 175 165 156 156 173 185 189 189 186 185 184 182 179 180 180 182 179 168 161 167 185
260 249 255 262 262 255 225 266 254 233 238 240 239 238 231 229 224 218 209 200 199 197 192 191 189 188 187 182 179 178 181 187 191 188 188 185 187 186 185 183 182 183 184 183 183 177 167 161 177
257 266 256 256 249 260 237 250 267 218 231 233 231 230 229 225 224 220 214 204 201 198 193 191 189 190 188 185 184 185 190 193 177 174 178 184 188 188 186 185 185 187 188 187 184 179 177 173 172
259 278 273 252 234 245 231 224 264 222 221 225 227 226 225 222 222 222 217 206 201 197 193 191 189 190 189 188 188 189 191 184 175 180 186 189 190 191 191 188 190 191 190 189 188 186 185 185 179
243 236 248 223 213 238 199 210 246 235 225 223 227 229 225 221 218 218 213 206 201 196 194 192 191 191 189 190 192 194 193 189 188 189 190 190 191 196 197 193 194 193 191 189 185 187 191 189 188
239 210 213 219 218 253 198 223 250 246 237 235 233 234 234 227 221 217 214 208 203 197 194 193 193 193 191 191 195 196 195 193 196 193 192 194 198 199 192 194 195 193 190 189 188 191 193 193 197
233 217 217 243 271 260 237 256 283 292 283 262 250 240 236 235 229 222 216 209 204 199 196 194 195 194 193 194 194 195 196 195 195 193 191 195 196 191 187 192 194 193 191 190 189 196 196 194 200
239 235 171 206 222 243 253 242 243 279 290 295 287 267 252 244 236 230 220 212 206 201 197 195 196 196 193 194 195 197 196 197 195 191 193 195 193 187 187 191 194 192 191 191 192 194 194 196 199
330 282 250 232 243 236 262 260 243 279 299 305 302 297 277 262 247 235 225 212 203 198 195 195 196 196 194 194 194 194 196 195 193 194 196 194 191 188 190 192 193 194 194 193 194 197 192 198 198
253 251 234 246 263 242 257 269 329 346 335 328 320 314 299 278 266 243 225 208 196 194 194 194 194 196 196 194 193 194 193 192 193 195 194 191 190 191 190 189 192 195 195 195 196 197 195 197 198
Height
1501 1502 1503 1505 1508 1512 1508 1495 1486 1480 1476 1471 1470 1470 1469 1471 1473 1476 1469 1468 1471 1475 1480 1485 1490 1494 1497 1500 1504 1507 1509 1512 1514 1516 1518 1520 1522 1523 1525 1526 1527 1528 1529 1530 1531 1531 1532 1533 1533
1499 1500 1502 1502 1508 1511 1500 1486 1480 1472 1468 1467 1468 1468 1466 1465 1465 1465 1465 1468 1472 1475 1479 1484 1489 1493 1496 1499 1503 1506 1509 1511 1514 1516 1518 1520 1521 1523 1525 1526 1527 1528 1529 1530 1530 1531 1532 1533 1534
1496 1497 1499 1499 1501 1495 1488 1476 1471 1467 1466 1467 1466 1465 1463 1462 1462 1463 1464 1468 1471 1475 1479 1483 1488 1492 1495 1498 1502 1505 1508 1511 1513 1515 1517 1519 1521 1523 1524 1526 1527 1528 1529 1530 1530 1531 1532 1533 1534
1493 1495 1495 1496 1487 1477 1473 1467 1466 1465 1464 1463 1463 1463 1461 1461 1461 1462 1464 1467 1470 1474 1478 1483 1487 1491 1494 1498 1501 1504 1507 1510 1512 1514 1517 1519 1521 1522 1524 1525 1527 1528 1529 1530 1531 1532 1533 1534 1535
1490 1490 1492 1487 1476 1470 1466 1465 1466 1466 1464 1461 1461 1460 1458 1459 1460 1461 1463 1466 1469 1473 1478 1482 1486 1490 1494 1497 1500 1503 1506 1509 1511 1514 1516 1518 1520 1522 1523 1525 1527 1528 1529 1530 1531 1532 1533 1534 1535
1487 1485 1486 1476 1468 1464 1463 1463 1464 1463 1461 1459 1459 1458 1456 1457 1458 1460 1462 1465 1468 1472 1476 1481 1486 1489 1493 1496 1499 1502 1505 1508 1511 1513 1515 1518 1520 1522 1523 1525 1527 1528 1529 1531 1532 1533 1534 1535 1536
1482 1480 1473 1468 1464 1461 1458 1459 1460 1459 1457 1455 1455 1455 1454 1455 1457 1459 1461 1464 1468 1472 1476 1480 1485 1488 1492 1495 1498 1501 1504 1507 1510 1512 1515 1517 1519 1521 1523 1525 1527 1528 1530 1531 1532 1533 1535 1536 1537
1474 1474 1467 1463 1461 1455 1453 1455 1454 1454 1452 1450 1451 1450 1451 1453 1455 1458 1461 1464 1467 1471 1475 1479 1483 1487 1490 1494 1497 1500 1503 1506 1509 1512 1514 1516 1519 1521 1523 1525 1527 1528 1530 1531 1533 1534 1535 1536 1537
1469 1469 1456 1453 1454 1451 1450 1451 1449 1450 1449 1447 1446 1445 1445 1448 1452 1455 1459 1463 1467 1470 1474 1477 1481 1485 1489 1492 1496 1499 1503 1506 1508 1511 1513 1516 1518 1520 1522 1524 1526 1528 1530 1531 1533 1534 1536 1537 1538
1461 1454 1443 1445 1447 1447 1447 1447 1447 1447 1444 1443 1442 1442 1442 1444 1447 1450 1453 1458 1462 1466 1471 1475 1479 1482 1486 1490 1494 1498 1501 1504 1507 1509 1512 1515 1517 1519 1522 1524 1526 1528 1530 1532 1533 1535 1536 1537 1539
1452 1445 1442 1443 1444 1445 1445 1444 1444 1444 1441 1440 1440 1439 1440 1441 1444 1446 1449 1452 1456 1461 1466 1471 1476 1480 1484 1488 1491 1495 1499 1502 1505 1508 1511 1514 1516 1519 1521 1523 1526 1528 1530 1531 1533 1535 1536 1538 1539
1448 1441 1441 1441 1443 1443 1442 1441 1440 1438 1436 1436 1437 1437 1437 1438 1440 1442 1445 1450 1454 1459 1463 1468 1473 1477 1481 1485 1489 1493 1496 1500 1503 1506 1509 1512 1515 1517 1520 1523 1525 1527 1529 1531 1533 1535 1537 1538 1540
1444 1439 1438 1439 1439 1439 1439 1437 1436 1431 1431 1433 1434 1435 1434 1435 1436 1439 1442 1446 1451 1455 1460 1465 1470 1474 1478 1483 1487 1490 1494 1498 1501 1505 1508 1511 1513 1516 1519 1522 1524 1527 1529 1531 1533 1535 1536 1538 1539
1439 1437 1436 1435 1435 1436 1436 1432 1431 1423 1427 1429 1430 1431 1431 1432 1434 1437 1441 1444 1448 1452 1457 1462 1466 1471 1476 1480 1484 1488 1492 1496 1500 1503 1506 1509 1512 1515 1518 1521 1524 1526 1528 1531 1533 1535 1536 1538 1539
1439 1437 1433 1430 1430 1430 1434 1428 1421 1420 1424 1424 1425 1426 1428 1429 1431 1433 1436 1439 1443 1448 1453 1458 1463 1468 1473 1477 1482 1486 1490 1494 1497 1501 1504 1507 1511 1514 1517 1520 1522 1525 1528 1530 1532 1534 1536 1538 1539
1436 1436 1431 1423 1424 1425 1432 1420 1412 1417 1420 1418 1419 1421 1423 1425 1427 1429 1432 1436 1440 1445 1449 1454 1460 1464 1469 1474 1479 1483 1488 1491 1495 1499 1502 1505 1509 1512 1515 1518 1521 1524 1527 1529 1531 1533 1535 1537 1539
1434 1432 1427 1421 1419 1419 1422 1413 1409 1412 1413 1413 1413 1415 1418 1420 1422 1426 1429 1433 1437 1441 1445 1450 1455 1460 1465 1471 1476 1481 1485 1489 1493 1496 1500 1503 1507 1510 1514 1517 1520 1523 1525 1528 1530 1532 1534 1536 1538
1428 1426 1421 1418 1414 1415 1413 1408 1406 1407 1408 1407 1408 1409 1411 1414 1416 1420 1424 1428 1432 1437 1441 1446 1451 1456 1462 1468 1473 1478 1482 1486 1490 1493 1497 1500 1504 1508 1511 1515 1518 1521 1523 1526 1528 1531 1533 1535 1537
1423 1422 1418 1414 1412 1413 1409 1405 1402 1402 1403 1402 1402 1403 1404 1407 1411 1415 1419 1423 1427 1432 1436 1441 1446 1452 1457 1462 1467 1471 1475 1480 1485 1489 1493 1497 1501 1505 1508 1512 1515 1518 1521 1523 1526 1529 1531 1533 1535
1421 1420 1417 1412 1410 1410 1407 1402 1398 1397 1396 1396 1396 1397 1398 1401 1404 1408 1412 1416 1420 1424 1429 1435 1440 1445 1450 1455 1460 1465 1471 1476 1480 1485 1490 1494 1498 1501 1505 1508 1511 1515 1518 1521 1524 1526 1529 1531 1533
1416 1415 1413 1411 1408 1406 1406 1399 1393 1389 1388 1388 1389 1389 1391 1394 1396 1400 1405 1409 1413 1417 1422 1427 1433 1438 1444 1450 1456 1463 1469 1474 1478 1481 1485 1489 1493 1497 1501 1504 1508 1511 1515 1517 1520 1523 1526 1528 1530
1411 1407 1408 1408 1410 1407 1405 1400 1386 1383 1382 1380 1380 1381 1382 1385 1389 1393 1397 1400 1405 1409 1414 1420 1426 1431 1437 1444 1449 1454 1458 1462 1466 1472 1478 1484 1488 1493 1497 1500 1504 1508 1511 1514 1517 1520 1523 1526 1527
1406 1404 1405 1404 1406 1407 1403 1403 1386 1378 1376 1372 1372 1373 1375 1378 1381 1384 1388 1392 1397 1403 1408 1413 1419 1425 1431 1437 1442 1447 1452 1457 1463 1469 1474 1479 1484 1488 1492 1496 1500 1503 1507 1510 1514 1516 1519 1522 1524
1403 1403 1401 1400 1404 1405 1395 1400 1386 1375 1367 1365 1364 1365 1367 1370 1374 1377 1381 1385 1390 1396 1401 1406 1411 1417 1424 1429 1435 1440 1445 1451 1457 1462 1468 1473 1478 1483 1487 1491 1494 1498 1502 1505 1509 1512 1516 1518 1521
1402 1405 1406 1405 1402 1397 1386 1388 1377 1363 1358 1357 1357 1358 1360 1363 1366 1370 1374 1378 1382 1387 1393 1398 1404 1409 1416 1422 1428 1433 1439 1445 1450 1455 1461 1466 1471 1475 1479 1484 1488 1492 1496 1501 1505 1508 1511 1514 1517
1399 1401 1404 1403 1400 1391 1382 1379 1367 1356 1353 1352 1353 1354 1355 1357 1360 1363 1366 1371 1375 1380 1385 1391 1396 1402 1408 1414 1421 1427 1433 1439 1444 1450 1455 1460 1464 1469 1474 1479 1483 1487 1492 1496 1500 1504 1507 1510 1513
1397 1396 1394 1397 1395 1393 1383 1373 1362 1354 1351 1350 1349 1349 1349 1351 1353 1356 1359 1364 1368 1373 1377 1383 1389 1395 1401 1407 1414 1420 1426 1432 1437 1443 1449 1455 1460 1465 1470 1474 1478 1483 1487 1491 1495 1499 1502 1505 1508
1396 1394 1396 1397 1397 1391 1379 1372 1364 1356 1352 1349 1347 1346 1344 1345 1347 1349 1352 1356 1360 1365 1371 1376 1382 1387 1393 1400 1407 1413 1419 1425 1431 1437 1443 1448 1454 1460 1465 1469 1474 1478 1482 1486 1490 1494 1497 1501 1503
1398 1398 1396 1396 1394 1390 1382 1368 1355 1354 1351 1349 1346 1343 1341 1341 1341 1342 1345 1349 1354 1359 1364 1370 1375 1381 1387 1393 1400 1407 1413 1419 1425 1431 1436 1443 1448 1454 1459 1464 1469 1473 1477 1481 1485 1488 1492 1495 1498
1398 1399 1399 1400 1396 1390 1384 1369 1352 1352 1349 1347 1345 1342 1338 1337 1336 1337 1339 1343 1347 1352 1357 1362 1368 1374 1380 1386 1393 1400 1407 1413 1419 1425 1430 1437 1443 1448 1454 1459 1463 1468 1472 1476 1480 1483 1486 1490 1493